Location: Unspecified
(0.0000°N, 0.0000°E)
Time: 19:11:01
(UTC+00:00)

Hubble Space Telescope - Pass Details

Date: 09 August 2021
Orbit: 535 x 539 km, 28.5° (Epoch: 26 September)

Event Time Altitude Azimuth Distance (km) Brightness Sun altitude
Rises 19:27:45 0° 300° (WNW) 2,667 5.8 -19.8°
Reaches altitude 10° 19:30:01 10° 300° (WNW) 1,777 4.5 -20.3°
Maximum altitude 19:34:08 89° 206° (SSW) 536 0.6 -21.3°
Enters shadow 19:34:31 73° 124° (ESE) 559 0.6 -21.4°
